Malmstrom AFB, MT

11:22 AM MST on January 19, 2018 (GMT -0700)
Malmstrom AFB

Weather History for KGFA - July, 2013

Change the Weather History Date:

Friday, July 12, 2013

  Actual Average (KGTF) Record (KGTF)
Temperature  
Mean Temperature 70 °F -  
Max Temperature 84 °F 82 °F 102 °F (2002)
Min Temperature 57 °F 53 °F 40 °F (2004)
Cooling Degree Days 6    
Growing Degree Days 20 (Base 50)    
Moisture  
Dew Point 44 °F    
Average Humidity 40    
Maximum Humidity 75    
Minimum Humidity 18    
Precipitation  
Precipitation 0.02 in - - ()
Sea Level Pressure  
Sea Level Pressure 29.84 in    
Wind  
Wind Speed 12 mph (SSW)    
Max Wind Speed 24 mph    
Max Gust Speed 37 mph    
Visibility 10 miles    
Events Rain , Thunderstorm    
Averages and records for this station are not official NWS values.
T = Trace of Precipitation, MM = Missing Value Source: NWS Daily Summary

Daily Weather History Graph

Daily Weather History Graph

Search for Another Location

Airport or City:

Trip Planner

Search our weather history database for the weather conditions in past years. The results will help you decide how hot, cold, wet, or windy it might be!

Date:

Astronomy

Jul. 12, 2013 Rise Set
Actual Time 5:40 AM MDT 9:19 PM MDT
Civil Twilight 5:01 AM MDT 9:58 PM MDT
Nautical Twilight 4:08 AM MDT 10:51 PM MDT
Astronomical Twilight 2:55 AM MDT 12:03 AM MDT
Moon 10:22 AM MDT (7/12) 11:07 PM MDT (7/12)
Length of Visible Light 16h 57m
Length of Day
15h 39m
Waxing Crescent, 18% of the Moon is Illuminated
Jul 12
Waxing Crescent
Jul 15
First Quarter
Jul 22
Full
Jul 29
Last Quarter
Aug 6
New

Hourly Weather History & Observations

Time (MDT) Temp. Dew Point Humidity Pressure Visibility Wind Dir Wind Speed Gust Speed Precip Events Conditions
12:56 AM 66.9 °F 41.0 °F 39% 29.79 in 10.0 mi South 15.0 mph - N/A   Clear
1:56 AM 66.9 °F 39.0 °F 36% 29.80 in 10.0 mi SSW 17.3 mph - N/A   Clear
2:56 AM 60.1 °F 39.9 °F 47% 29.83 in 10.0 mi SSW 10.4 mph - N/A   Clear
3:56 AM 59.0 °F 41.0 °F 51% 29.83 in 10.0 mi South 12.7 mph - N/A   Clear
4:56 AM 57.0 °F 42.1 °F 57% 29.84 in 10.0 mi South 11.5 mph - N/A   Clear
5:56 AM 57.0 °F 42.1 °F 57% 29.86 in 10.0 mi South 9.2 mph - N/A   Clear
6:56 AM 62.1 °F 44.1 °F 52% 29.85 in 10.0 mi South 8.1 mph - N/A   Clear
7:56 AM 69.1 °F 44.1 °F 40% 29.85 in 10.0 mi SSW 12.7 mph - N/A   Clear
8:56 AM 73.0 °F 43.0 °F 34% 29.85 in 10.0 mi South 13.8 mph - N/A   Clear
9:56 AM 75.9 °F 42.1 °F 30% 29.85 in 10.0 mi SW 16.1 mph - N/A   Clear
10:56 AM 78.1 °F 39.0 °F 25% 29.84 in 10.0 mi SW 17.3 mph - N/A   Clear
11:56 AM 80.1 °F 41.0 °F 25% 29.84 in 10.0 mi WSW 12.7 mph 20.7 mph N/A   Clear
12:56 PM 82.9 °F 41.0 °F 23% 29.82 in 10.0 mi WSW 17.3 mph 23.0 mph N/A   Clear
1:56 PM 84.0 °F 39.0 °F 20% 29.81 in 10.0 mi SSW 12.7 mph 31.1 mph N/A   Clear
2:56 PM 84.9 °F 37.0 °F 18% 29.80 in 10.0 mi SW 18.4 mph 24.2 mph N/A   Clear
3:53 PM 82.4 °F 35.6 °F 19% 29.82 in 10.0 mi South 17.3 mph 21.9 mph N/A Thunderstorm Thunderstorm
3:56 PM 82.0 °F 37.0 °F 20% 29.83 in 10.0 mi SSW 24.2 mph 29.9 mph N/A Thunderstorm Thunderstorm
4:08 PM 77.0 °F 41.0 °F 28% 29.83 in 10.0 mi SE 17.3 mph 36.8 mph N/A   Mostly Cloudy
4:28 PM 73.4 °F 48.2 °F 41% 29.86 in 10.0 mi SW 20.7 mph 36.8 mph 0.00 in Rain , Thunderstorm Light Thunderstorms and Rain
4:38 PM 75.2 °F 44.6 °F 34% 29.82 in 10.0 mi NNW 9.2 mph 23.0 mph 0.00 in Rain , Thunderstorm Light Thunderstorms and Rain
4:56 PM 77.0 °F 45.0 °F 32% 29.84 in 10.0 mi West 3.5 mph - 0.00 in   Mostly Cloudy
5:56 PM 79.0 °F 43.0 °F 28% 29.85 in 10.0 mi West 10.4 mph - N/A   Clear
6:24 PM 78.8 °F 42.8 °F 28% 29.84 in 10.0 mi WSW 4.6 mph - N/A Thunderstorm Thunderstorm
6:45 PM 80.6 °F 41.0 °F 24% 29.83 in 10.0 mi Calm Calm - N/A   Partly Cloudy
6:56 PM 79.0 °F 39.0 °F 24% 29.83 in 10.0 mi Calm Calm - N/A   Partly Cloudy
7:56 PM 73.0 °F 50.0 °F 44% 29.85 in 10.0 mi SE 8.1 mph - 0.00 in   Scattered Clouds
8:13 PM 69.8 °F 53.6 °F 56% 29.87 in 10.0 mi SSE 8.1 mph - 0.01 in Rain , Thunderstorm Light Thunderstorms and Rain
8:31 PM 69.8 °F 53.6 °F 56% 29.89 in 10.0 mi SE 4.6 mph - 0.01 in Rain Light Rain
8:56 PM 68.0 °F 55.9 °F 65% 29.87 in 10.0 mi Variable 3.5 mph - 0.01 in Rain Light Rain
9:56 PM 68.0 °F 57.0 °F 68% 29.88 in 10.0 mi ENE 3.5 mph - 0.01 in Rain Light Rain
10:56 PM 63.0 °F 55.0 °F 75% 29.88 in 10.0 mi Calm Calm - 0.00 in   Partly Cloudy
11:56 PM 61.0 °F 51.1 °F 70% 29.89 in 10.0 mi SSE 6.9 mph - N/A   Clear